Location: Garrey
(43.6712°N, 0.9099°W)
Time: 04:16:34
(UTC+00:00)

Daily predictions for brighter satellites

Satellite Brightness Start Highest point End
(mag) Time Altitude Azimuth Time Altitude Azimuth Time Altitude Azimuth
Cosmos 1980 Rocket 3.8 03:23:20 31° E 03:23:20 31° E 03:27:16 10° NE
NOSS 3-1 (A) 4.2 03:23:44 66° NE 03:23:44 66° NE 03:32:34 10° SE
ATLAS 3B R/B 3.8 03:27:51 38° N 03:30:04 47° NE 03:37:27 10° ESE
Cosmos 1697 Rocket 4.3 03:42:44 27° NNE 03:42:44 27° NNE 03:45:14 10° NNE
ATLAS 2AS CENTAUR R/B 3.0 03:47:22 60° N 03:47:22 60° N 03:53:07 10° NE
Lacrosse 4 Rocket 3.8 03:49:00 21° E 03:49:00 21° E 03:50:54 10° ESE
Cosmos 1818 4.3 03:51:21 49° E 03:51:21 49° E 03:55:51 10° NE
USA 59 Rocket 2.6 03:53:36 13° NE 03:53:49 13° NE 03:55:55 10° ENE
Cosmos 2263 Rocket 2.8 04:00:00 47° NNE 04:01:01 53° ENE 04:06:29 10° SE
Cosmos 2266 Rocket 4.2 04:02:39 10° S 04:09:01 71° E 04:15:24 10° NNE
Cosmos 2227 Rocket 3.8 04:13:54 21° S 04:13:54 21° S 04:15:47 10° S
Cosmos 2285 Rocket 3.8 04:11:34 79° SW 04:11:34 79° SW 04:17:44 10° SSE
BREEZE-M DEB (TANK) 4.4 04:14:05 20° NE 04:14:05 20° NE 04:16:06 10° ENE
SL-16 R/B 4.5 04:17:29 10° SSE 04:21:49 23° E 04:26:10 10° NE
Gbstr 26 Del rocket 3.9 04:22:25 44° SSE 04:22:48 45° SE 04:27:42 10° ENE
Cosmos 1655 Rocket 4.4 04:22:16 10° S 04:28:33 65° E 04:34:50 10° NNE
Cosmos 1484 Rocket 3.9 04:26:05 10° NNE 04:29:22 38° E 04:30:40 27° SE
IRAS Rocket 4.1 04:29:57 10° NNE 04:35:29 84° WNW 04:40:09 15° SSW
DELTA 2 R/B (1) 3.8 04:35:55 52° SW 04:36:46 58° S 04:42:13 10° ESE
Cosmos 2219 3.0 04:35:43 56° NW 04:36:51 72° WSW 04:42:28 10° SSE
S3M 3.8 04:30:41 10° N 04:36:56 76° W 04:43:05 10° S
BREEZE-M DEB (TANK) 3.7 04:39:16 25° ESE 04:39:16 25° ESE 04:40:51 10° E
Cosmos 1417 Rocket 4.4 04:34:37 10° NNW 04:40:39 60° W 04:46:38 10° S
H-2A R/B 2.5 04:39:37 10° N 04:43:09 40° NNW 04:43:09 40° NNW
BREEZE-M DEB (TANK) 2.8 04:45:30 60° ENE 04:45:30 60° ENE 04:50:43 10° E
Meteor 1-24 Rocket 3.5 04:44:50 10° SSW 04:50:19 67° WNW 04:55:40 10° N
SL-8 R/B 3.5 04:49:43 60° WSW 04:50:34 88° NNW 04:55:20 10° ENE
ARGOS 3.1 04:50:10 10° NNE 04:55:38 88° E 05:01:04 10° SSW
Thor Agena Rocket 3.4 04:52:00 10° N 04:57:12 73° WNW 05:02:18 10° SSW
Meteor 2-20 4.4 04:53:59 10° NNW 04:59:59 58° W 05:05:56 10° S
Cosmos 1844 Rocket 4.2 04:55:24 10° N 05:00:34 35° NE 05:05:39 10° ESE
Meteor 2-20 Rocket 4.2 04:55:00 10° N 05:00:55 80° W 05:06:38 10° S
Cosmos 2322 Rocket 4.2 04:56:30 10° SSE 05:01:19 30° ESE 05:06:09 10° NE
Cosmos 1980 Rocket 2.6 05:05:10 35° W 05:06:12 38° WNW 05:11:26 10° NNE
Sich 1 Rocket 4.4 05:02:08 10° N 05:06:31 53° E 05:10:55 10° SSE
IRS-1D 4.0 05:05:34 10° N 05:09:55 33° WNW 05:09:55 33° WNW
Cosmos 2369 3.8 05:07:06 24° SW 05:10:16 50° WNW 05:15:46 10° NNE
USA 281 3.2 05:04:54 10° S 05:11:22 61° WSW 05:17:54 10° NNW
Cosmos 1378 Rocket 3.5 05:09:37 10° S 05:14:03 87° WNW 05:18:28 10° N
Atlas Centaur 2 3.7 05:14:47 10° SSW 05:15:46 11° SSW 05:16:43 10° S
Cosmos 1674 Rocket 3.6 05:11:46 10° S 05:16:03 79° E 05:20:23 10° N
ATLAS CENTAUR R/B 3.1 05:18:24 15° NNW 05:18:24 15° NNW 05:19:53 10° N
FengYun 1-2 T 4.2 05:12:59 10° NNE 05:18:40 85° WNW 05:24:19 10° SSW
Meteor 2-5 Rocket 4.1 05:13:24 10° SW 05:18:49 41° WNW 05:24:09 10° N
Cosmos 371 Rocket 3.3 05:16:35 15° NNW 05:20:25 59° WSW 05:25:10 10° S
ARIANE 6 FM1 Upper Stage 2.8 05:16:14 10° SSW 05:20:25 78° SE 05:24:42 10° NE
USA 267 4.2 05:14:44 10° E 05:20:40 39° NNE 05:26:09 12° NW
ATLAS 3B R/B 3.2 05:15:09 18° NW 05:20:59 51° WSW 05:28:15 10° S
Okean 2 Rocket 3.1 05:17:42 10° N 05:22:12 82° E 05:26:39 10° S
Cosmos 1992 Rocket 4.0 05:17:41 10° SSW 05:22:50 60° WNW 05:28:01 10° NNE
COSMO-SKYMED 1 2.5 05:18:37 10° S 05:22:57 82° WSW 05:27:19 10° NNW
Cosmos 1697 Rocket 4.3 05:24:29 16° NW 05:24:29 16° NW 05:27:51 10° N
Cosmos 1939 Rocket 3.5 05:21:38 10° N 05:24:25 29° NW 05:24:25 29° NW
Lacrosse 4 Rocket 2.2 05:24:51 29° W 05:25:26 30° WSW 05:29:00 10° S
Cosmos 1486 Rocket 4.4 05:20:15 10° NNW 05:25:26 65° ENE 05:30:37 10° SSE
NOAA 12 4.1 05:22:08 10° NNE 05:27:30 87° ESE 05:32:49 10° SSW
NOSS 2-1 (D) 3.7 05:29:47 16° NNW 05:32:57 78° NE 05:38:20 10° SE
Cosmos 2098 Rocket 2.9 05:29:57 10° N 05:33:40 62° E 05:36:47 10° SSE
Cosmos 1818 4.5 05:32:02 21° W 05:34:22 29° NW 05:39:07 10° NNE
Cosmos 2227 4.2 05:30:03 10° NNW 05:35:45 86° WSW 05:41:27 10° SSE
SJ-11-01 4.2 05:33:05 10° N 05:37:45 80° WNW 05:42:25 10° SSW
ATLAS 2AS CENTAUR R/B 3.9 05:34:50 17° WNW 05:38:08 24° NNW 05:43:36 10° NNE
USA 59 Rocket 0.1 05:39:52 13° NW 05:43:26 88° WSW 05:49:00 10° SE
Cosmos 2263 Rocket 3.3 05:41:46 16° WNW 05:44:30 23° W 05:48:48 10° SSW
Cosmos 1455 Rocket 4.4 05:40:47 10° N 05:44:56 41° ENE 05:49:02 10° SSE
Cosmos 2237 4.2 05:40:12 10° SW 05:45:49 62° WNW 05:51:29 10° NNE
Nadezhda 1 Rocket 4.4 05:39:45 10° N 05:45:53 65° E 05:51:53 10° SSE
CBERS-1 4.4 05:43:03 10° N 05:47:52 42° WNW 05:52:39 10° SW
SL-08 R/B 4.4 05:43:41 10° SSW 05:49:46 77° W 05:55:57 10° N
Cosmos 2360 Rocket 2.8 05:47:39 10° S 05:53:09 63° ESE 05:58:42 10° NNE
Cosmos 1437 Rocket 3.3 05:50:04 10° SW 05:53:14 30° WNW 05:56:29 10° N
Cosmos 2151 Rocket 4.1 05:51:11 10° NNW 05:55:17 37° W 05:59:23 10° SSW
TIMED 4.4 05:52:49 10° NNW 05:57:08 72° WSW 06:01:24 10° SSE
Cosmos 1484 Rocket 4.2 06:00:40 10° NNW 06:02:34 14° WNW 06:04:27 10° W
Cosmos 1606 2.4 06:00:12 10° N 06:03:36 83° E 06:06:57 10° S
Okean 1 Rocket 3.2 05:59:22 10° NNW 06:03:43 52° W 06:08:02 10° S
Cosmos 2084 Rocket 3.8 05:59:43 10° WSW 06:03:51 43° NW 06:07:54 10° NNE
BREEZE-M DEB (TANK) 3.5 05:59:20 11° WNW 06:04:10 35° N 06:06:24 10° ENE
Cosmos 1354 Rocket 4.4 05:59:23 10° NNW 06:04:42 67° ENE 06:09:55 10° SSE
SL-16 R/B 2.3 05:59:57 10° SW 06:05:29 54° WNW 06:11:03 10° NNE
Gbstr 26 Del rocket 3.7 06:04:50 10° W 06:09:24 50° NNW 06:15:02 10° NE
NOSS 2-1 (E) 4.0 06:07:14 10° NW 06:11:13 53° SW 06:16:43 10° SSE
TRACE 4.3 06:09:12 10° SSE 06:12:26 89° ENE 06:15:43 10° NNW
CZ-2D R/B 3.0 06:09:15 10° N 06:12:45 63° WNW 06:16:14 10° SSW
EXPRESS MD2 2.5 06:09:39 10° WSW 06:13:04 60° NNW 06:15:24 10° NE
ADEOS Rocket 3.5 06:09:32 10° NNE 06:16:49 84° ESE 06:23:17 10° SSW
Geosat FO 4.4 06:14:20 10° SSE 06:17:45 83° WSW 06:21:02 10° NNW
CZ-2D R/B 3.3 06:14:27 10° NNE 06:18:23 83° WNW 06:22:24 10° SSW
SJ-12 4.0 06:17:08 10° N 06:20:57 48° WNW 06:24:44 10° SSW
DELTA 2 R/B (1) 4.4 06:17:32 10° W 06:22:46 42° SSW 06:27:58 10° SE
